Location: ??????????
(54.8537°N, 38.8755°E)
Time: 22:37:02
(UTC+00:00)

Transit 2A Rocket - Pass Details

Date: 22 September 2024
Orbit: 582 x 908 km, 66.7° (Epoch: 09 October)

Event Time Altitude Azimuth Distance (km) Brightness Sun altitude
Exits shadow 19:31:51 23° 52° (NE) 1,851 7.0 -31.2°
Drops below altitude 10° 19:33:59 10° 46° (NE) 2,590 7.8 -31.3°
Sets 19:36:31 0° 43° (NE) 3,515 8.6 -31.5°
